Regional Weather Roundup
Issued by NWS

Home | Current Version | Previous Version | Text Only | Print | Product List | Glossary On
Versions: 1 2 3 4 5 6 7 8 9 10 11 12 13 14 15 16 17 18 19 20 21 22 23 24 25 26 27 28 29 30 31 32 33 34 35 36 37 38 39 40 41 42 43 44 45 46 47 48 49 50
000
ASCA44 KEWX 241620
RWRMX

LATIN AMERICA AND CARIBBEAN REGIONAL WEATHER ROUNDUP
NATIONAL WEATHER SERVICE AUSTIN/SAN ANTONIO TX
1100 AM CDT WED AUG 24 2016

NOTE: "FAIR" INDICATED FEW OR NO CLOUDS BELOW 12,000 FEET WITH NO
SIGNIFICANT WEATHER AND/OR OBSTRUCTIONS TO VISIBILITY.

BAJA CALIFORNIA

CITY           SKY/WX    TMP DP  RH WIND       PRES   REMARKS
LORETO         MOSUNNY   88  79  74 CALM      29.95R HX 102
LA PAZ         MOSUNNY   82  72  69 S5        29.99R
MEXICALI       SUNNY     86  73  66 SE12      29.73F HX  93
S.J. DEL CABO  MOSUNNY   84  70  61 CALM      30.01R
TIJUANA        MOSUNNY   68  59  73 N5        30.07S FOG

NORTHWESTERN MEXICO

CITY           SKY/WX    TMP DP  RH WIND       PRES   REMARKS
CULIACAN       MOSUNNY   84  75  74 CALM      29.97F HX  92
DURANGO        PTSUNNY   64  57  77 CALM      30.39R
GUAYMAS        MOSUNNY   88  81  79 CALM      29.93S HX 105
HERMOSILLO     SUNNY     88  77  70 NE7       30.02R HX 100
CD. JUAREZ     MOSUNNY   77  64  65 W10       30.11S
LOS MOCHIS     SUNNY     82  75  78 E12       29.99S
OBREGON        MOSUNNY   86  75  70 SE3       29.97R HX  95

NORTHEASTERN MEXICO

CITY           SKY/WX    TMP DP  RH WIND       PRES   REMARKS
CHIHUAHUA      PTSUNNY   70  61  73 CALM      30.26R
MATAMOROS      PTSUNNY   88  75  66 S9        30.10S HX  97
MONCLOVA       SUNNY     82  68  61 CALM      30.11
MONTERREY      MOSUNNY   79  61  53 E9        30.10S
NUEVO LAREDO   SUNNY     86  70  58 S14       30.08S HX  90
PIEDRAS NEGRAS SUNNY     84  70  61 SE14      30.09F
REYNOSA        SUNNY     86  68  54 S12G23    30.09S
SALTILLO       SUNNY     81  64  57 S16       30.30F
TORREON        MOSUNNY   81  59  47 SE7       30.21S
CD. VICTORIA   MOSUNNY   82  66  57 S8G20     30.13S

WESTERN MEXICO

CITY           SKY/WX    TMP DP  RH WIND       PRES   REMARKS
AGUASCALIENTES PTSUNNY   63  52  67 CALM      30.41S
COLIMA         PTSUNNY   75  70  83 CALM      30.13
DEL BAJIO      CLOUDY    66  61  82 CALM      30.42F
GUADALAJARA    PTSUNNY   70  61  73 NE5       30.31S
MANZANILLO     PTSUNNY   88  79  74 SE6       29.95R HX 102
MAZATLAN       PTSUNNY   79  73  83 CALM      29.98S
P. VALLARTA    PTSUNNY   84  73  70 E2        29.97F HX  91
URUAPAN        CLOUDY    68  64  88 CALM      30.29R
ZACATECAS        N/A    N/A N/A N/A MISG        N/A

CENTRAL MEXICO

CITY           SKY/WX    TMP DP  RH WIND       PRES   REMARKS
CUERNAVACA     CLOUDY    70  64  83 CALM      30.30S
MEXICO CITY    CLOUDY    61  54  77 E6        30.47F
MORELIA        CLOUDY    63  59  88 CALM      30.37S
POZA RICA      CLOUDY    79  73  83 CALM      30.17R
PUEBLA         CLOUDY    61  52  72 N3        30.48F
QUERETARO      CLOUDY    61  59  94 E5        30.46R
S. LUIS POTOSI CLOUDY    64  48  55 E8        30.40S
TAMPICO        PTSUNNY   82  73  74 CALM      30.13S
TOLUCA         CLOUDY    59  50  72 E2        30.53S

SOUTHERN MEXICO

CITY           SKY/WX    TMP DP  RH WIND       PRES   REMARKS
ACAPULCO       CLOUDY    84  73  70 NW6       29.94F HX  91
B. DE HUATULCO MOSUNNY   86  75  70 NW8       30.01S HX  95
OAXACA         CLOUDY    70  55  60 W6        30.36S
P. ESCONDIDO   PTSUNNY   84  72  65 CALM      30.03F
VERACRUZ       CLOUDY    79  73  83 NW5       30.13F
ZIHUATANEJO    PTSUNNY   86  73  66 CALM      29.96S HX  93

YUCATAN PENINSULA

CITY           SKY/WX    TMP DP  RH WIND       PRES   REMARKS
CAMPECHE       MOSUNNY   88  75  66 N6        30.03F HX  97
CANCUN         MOSUNNY   88  77  70 NE13      30.05S HX 100
CHETUMAL       MOSUNNY   88  77  70 NE9       30.04R HX 100
CD. DEL CARMEN PTSUNNY   88  70  55 E5        30.05S HX  92
COZUMEL        PTSUNNY   84  77  79 NE9       30.04S HX  94
MERIDA         PTSUNNY   91  77  62 NE8       30.06S HX 105
MINATITLAN     CLOUDY    82  73  74 CALM      30.07S
TAPACHULA      MOSUNNY   90  73  58 CALM      29.89R HX  98
TUX. GUTIERREZ PTSUNNY   79  64  61 SE7       30.09F
VILLAHERMOSA   PTSUNNY   84  73  70 NE6       30.08R HX  91

CENTRAL AMERICA

CITY           SKY/WX    TMP DP  RH WIND       PRES   REMARKS
BELIZE CITY    MOSUNNY   81  79  94 NW5       30.05S
MANAGUA        MOSUNNY   86  73  66 E12       29.89S HX  93

CARIBBEAN

CITY           SKY/WX    TMP DP  RH WIND       PRES   REMARKS
ARUBA          MOSUNNY   88  79  74 SE17      29.83F HX 102
CURACAO        MOSUNNY   88  77  70 E15       29.86F HX 100
KINGSTON       MOSUNNY   86  75  70 S7        29.92S HX  95
NASSAU         PTSUNNY   86  79  79 CALM      30.06F THUNDER HX  99
SAN JUAN       LGT RAIN  81  79  94 E8        29.88
SANTO DOMINGO  PTSUNNY   81  79  94 N10       29.89S
ST. CROIX      HVY RAIN  79  77  94 SW6       29.90  FOG
ST. KITTS      LGT RAIN  81  73  78 S10       29.94S
ST. MAARTEN    PTSUNNY   75  73  94 MISG      29.92
ST. THOMAS     LGT RAIN  84  81  89 E16       29.86F HX  98

$$





USA.gov is the U.S. government's official web portal to all federal, state and local government web resources and services.